[[{"header":{"parameterUnit":"m.s-1","parameterCategory":1,"la1":30.2991,"la2":30.254,"lo1":-89.0895,"lo2":-89.0444,"dy":0.0017,"dx":0.0017,"nx":28,"ny":28,"refTime":"2025-08-14T09:00:00:Z","depth":0,"parameterNumber":2,"parameterNumberName":"U-component_of_WINDS"},"data":[0,0,0,0,0,0,0,0,0,0,0,0,0,0,0,0,0,0,0,0,0,0,0,0,0,0,0,0,0,0,0,0,0,0,0,0,0,0,0,0,0,0,0,0,0,0,0,0,0,0,0,0,0,0,0,0,0,0,2.7078,2.7079,0,2.7145,2.7146,2.7147,2.7081,2.7079,2.7076,2.7074,2.7143,2.7147,2.7151,0,0,0,0,0,0,0,0,0,0,0,0,0,2.6893,2.6897,2.7078,2.7079,2.708,2.7145,2.7146,2.7147,2.7082,2.7079,2.7075,2.7072,2.7142,2.7147,2.7152,0,0,0,0,0,0,0,0,0,0,0,0,0,2.6968,2.6898,2.7078,2.7055,2.7054,2.7145,2.7146,2.7147,2.7082,2.7078,2.7075,2.7071,2.714,2.7146,2.7153,2.727,0,0,2.7172,2.7175,0,0,0,0,0,0,0,0,2.6964,2.6975,2.7058,2.7057,2.7055,2.7101,2.7106,2.7189,2.7083,2.7072,2.7074,2.7069,2.7132,2.7139,2.716,2.7273,2.7276,2.7173,2.7177,2.7179,2.7181,0,0,0,0,0,0,0,2.6959,2.6972,2.7105,2.7059,2.7058,2.7041,2.7048,2.7122,2.7123,2.7072,2.7068,2.7076,2.7131,2.7154,2.7161,2.7277,2.7173,2.7178,2.7182,2.7185,2.749,2.7494,0,0,0,0,0,0,2.6956,2.6968,2.7102,2.7107,2.6999,2.7048,2.7055,2.709,2.7122,2.7123,2.708,2.7073,2.7145,2.7154,2.7164,2.7303,2.7179,2.7185,2.7189,2.7485,2.749,2.7495,0,0,0,0,0,0,2.6952,2.6969,2.71,2.7036,2.7051,2.7055,2.7095,2.7094,2.7117,2.7128,2.7128,2.7103,2.7142,2.7155,2.7244,2.7304,2.7188,2.7194,2.748,2.7487,2.7493,2.7582,0,0,0,0,0,0,2.6947,2.6968,2.7012,2.7038,2.7055,2.7179,2.7099,2.7098,2.7128,2.712,2.715,2.7151,2.714,2.7235,2.725,2.7311,2.7199,2.7475,2.7483,2.7491,2.7574,2.7591,2.7606,0,0,0,0,0,2.6941,2.7035,2.7015,2.7032,2.7111,2.7183,2.7193,2.7179,2.7133,2.7178,2.7185,2.715,2.7295,2.7244,2.7261,2.7325,2.7471,2.7481,2.749,2.7567,2.7588,2.7605,0,0,0,0,0,0,2.7018,2.7038,2.7016,2.7121,2.7151,2.7172,2.7228,2.7201,2.7245,2.7235,2.7216,2.7223,2.7318,2.733,2.7273,2.744,2.7376,2.7389,2.7428,2.7448,2.7464,2.7458,2.7204,0,0,0,0,0,2.7047,2.7103,2.7118,2.721,2.7226,2.7225,2.7255,2.7242,2.7272,2.7284,2.7297,2.7327,2.738,2.7415,2.7463,2.7576,2.7581,2.7628,2.7643,2.7656,2.7668,2.7728,2.7749,2.7527,2.7526,2.7526,0,0,2.7108,2.7126,2.7163,2.7226,2.7247,2.7306,2.7235,2.7301,2.7344,2.7294,2.7379,2.739,2.7422,2.7523,2.7569,2.7537,2.7731,2.7669,2.7679,2.7684,2.774,2.7761,2.7779,2.7533,2.7532,2.7531,0,0,2.7248,2.7268,2.7346,2.7369,2.7402,2.74,2.7419,2.7444,2.7449,2.7534,2.7497,2.7549,2.764,2.7664,2.7688,2.7838,2.7807,2.7855,2.7937,2.7995,2.8013,2.8028,2.8081,2.81,2.7866,2.7867,2.7867,0,2.732,2.7407,2.739,2.7458,2.7486,2.7443,2.7522,2.7545,2.7592,2.7613,2.7576,2.7689,2.7708,2.7814,2.785,2.7872,2.7892,2.7851,2.8012,2.8027,2.8041,2.8091,2.8111,2.7872,2.7872,2.7871,2.787,0,2.7493,2.7554,2.7613,2.766,2.7695,2.7768,2.7762,2.78,2.7783,2.7785,2.7872,2.7893,2.7945,2.7969,2.7954,2.8073,2.8052,2.8015,2.7949,2.8068,2.8115,2.8134,2.788,2.7878,2.7876,2.7875,0,0,2.7685,2.772,2.7742,2.7762,2.7795,2.7842,2.7913,2.7964,2.7996,2.803,2.8089,2.8167,2.8131,2.8159,2.8146,2.8197,2.8314,2.8153,2.8153,2.8182,2.8446,2.8474,2.8497,2.8294,2.8297,2.83,2.8443,0,2.7826,2.7949,2.7935,2.8053,2.8108,2.8068,2.8129,2.8156,2.8161,2.8208,2.8213,2.8268,2.8217,2.8234,2.8283,2.8289,2.8367,2.8279,2.8348,2.8351,2.8341,2.8521,2.8551,2.8685,2.8461,2.8464,2.8467,0,2.8007,2.8048,2.817,2.8194,2.8217,2.8273,2.8318,2.8364,2.8394,2.8393,2.8424,2.8402,2.8473,2.8406,2.8504,2.8444,2.8472,2.8479,2.8484,2.849,2.8416,2.8531,2.8727,2.8747,2.8495,2.8493,2.8491,0,2.8134,2.8219,2.8303,2.8322,2.8352,2.8392,2.8406,2.8432,2.8463,2.8502,2.8522,2.8569,2.8595,2.8632,2.8623,2.8576,2.8723,2.8656,2.8724,2.8724,2.8756,2.8755,2.8959,2.8775,2.8775,2.8775,2.8774,0,2.8293,2.837,2.836,2.8412,2.8496,2.848,2.8564,2.8573,2.8596,2.8649,2.8617,2.8667,2.8653,2.8702,2.8696,2.8777,2.8789,2.879,2.8788,2.8793,2.8793,2.881,2.8801,2.878,2.8779,2.8778,2.8777,0,2.8449,2.8446,2.8534,2.8555,2.8562,2.8624,2.8641,2.869,2.8691,2.8759,2.8773,2.8776,2.8832,2.8827,2.8891,2.8886,2.8987,2.8973,2.8977,2.8974,2.9042,2.9035,2.9265,2.9293,2.9091,2.9093,2.9095,0,2.855,2.8608,2.8635,2.8668,2.8685,2.8739,2.877,2.8756,2.879,2.8828,2.8872,2.8925,2.8967,2.906,2.9067,2.9115,2.9102,2.9179,2.9109,2.9113,2.9103,2.9099,2.9105,2.9193,2.9195,2.9197,2.9199,0,2.8731,2.8726,2.8773,2.8819,2.8857,2.8893,2.8925,2.8954,2.8943,2.8982,2.904,2.9072,2.9137,2.919,2.9236,2.9251,2.9223,2.9221,2.9239,2.9245,2.9244,2.9245,2.9014,2.9215,2.9214,2.9213,2.9212,2.9211,2.8862,2.8912,2.8938,2.8991,2.9013,2.9044,2.9091,2.9097,2.9145,2.9196,2.9185,2.9249,2.9277,2.9335,2.9354,2.9404,2.9377,2.9403,2.941,2.9416,2.9424,2.9237,2.9413,2.9412,2.9412,2.9412,2.9411,0,2.9041,2.9056,2.9104,2.915,2.9191,2.9161,2.9195,2.9232,2.9289,2.9317,2.9359,2.9424,2.9476,2.9487,2.9536,2.9574,2.9562,2.9587,2.9584,2.9588,2.9446,2.9425,2.9596,2.9596,2.9595,2.9595,2.9595,2.9595,2.9138,2.922,2.9218,2.9311,2.9325,2.9387,2.9409,2.9437,2.9459,2.9534,2.9576,2.9583,2.9604,2.9654,2.97,2.9702,2.9722,2.9751,2.9748,2.9616,2.9598,2.958,2.956,2.9756,2.9756,2.9885,2.9886,2.9887]},{"header":{"parameterUnit":"m.s-1","parameterCategory":1,"la1":30.2991,"la2":30.254,"lo1":-89.0895,"lo2":-89.0444,"dy":0.0017,"dx":0.0017,"nx":28,"ny":28,"refTime":"2025-08-14T09:00:00:Z","depth":0,"parameterNumber":3,"parameterNumberName":"V-component_of_WINDS"},"data":[0,0,0,0,0,0,0,0,0,0,0,0,0,0,0,0,0,0,0,0,0,0,0,0,0,0,0,0,0,0,0,0,0,0,0,0,0,0,0,0,0,0,0,0,0,0,0,0,0,0,0,0,0,0,0,0,0,0,-0.0871,-0.0871,0,-0.0855,-0.0854,-0.0854,-0.0855,-0.0855,-0.0855,-0.0856,-0.0838,-0.0837,-0.0836,0,0,0,0,0,0,0,0,0,0,0,0,0,-0.0902,-0.0902,-0.0871,-0.0871,-0.087,-0.0855,-0.0854,-0.0854,-0.0855,-0.0855,-0.0855,-0.0856,-0.0838,-0.0837,-0.0836,0,0,0,0,0,0,0,0,0,0,0,0,0,-0.0888,-0.0902,-0.0871,-0.0869,-0.0869,-0.0855,-0.0854,-0.0854,-0.0855,-0.0855,-0.0855,-0.0856,-0.0838,-0.0837,-0.0836,-0.0823,0,0,-0.0833,-0.0833,0,0,0,0,0,0,0,0,-0.0889,-0.0887,-0.0869,-0.0869,-0.0869,-0.0857,-0.0859,-0.0844,-0.0855,-0.086,-0.0856,-0.0856,-0.0844,-0.0842,-0.0839,-0.0822,-0.0821,-0.0833,-0.0832,-0.0832,-0.0832,0,0,0,0,0,0,0,-0.089,-0.0887,-0.0864,-0.0869,-0.0869,-0.0869,-0.0867,-0.0856,-0.085,-0.0859,-0.086,-0.0858,-0.0844,-0.0839,-0.0838,-0.0821,-0.0833,-0.0832,-0.0831,-0.0831,-0.0794,-0.0794,0,0,0,0,0,0,-0.0891,-0.0888,-0.0865,-0.0864,-0.088,-0.0868,-0.0866,-0.086,-0.085,-0.0849,-0.0857,-0.0858,-0.0841,-0.0839,-0.0837,-0.0822,-0.0832,-0.0831,-0.083,-0.0795,-0.0794,-0.0794,0,0,0,0,0,0,-0.0892,-0.0889,-0.0866,-0.0876,-0.0873,-0.0867,-0.0861,-0.086,-0.0856,-0.0849,-0.0848,-0.0854,-0.0841,-0.0839,-0.0827,-0.0821,-0.083,-0.083,-0.0795,-0.0795,-0.0794,-0.079,0,0,0,0,0,0,-0.0893,-0.0889,-0.0884,-0.0876,-0.0872,-0.0855,-0.086,-0.0859,-0.0854,-0.0854,-0.0845,-0.0844,-0.0841,-0.0828,-0.0826,-0.082,-0.0829,-0.0796,-0.0795,-0.0794,-0.0791,-0.079,-0.0789,0,0,0,0,0,-0.0894,-0.0883,-0.0884,-0.0881,-0.0866,-0.0855,-0.0853,-0.085,-0.0854,-0.0848,-0.0844,-0.0844,-0.0823,-0.0827,-0.0824,-0.0818,-0.0796,-0.0795,-0.0794,-0.0791,-0.079,-0.0789,0,0,0,0,0,0,-0.0889,-0.0882,-0.0882,-0.0869,-0.0863,-0.0855,-0.0848,-0.0848,-0.0841,-0.0841,-0.0838,-0.0836,-0.0824,-0.082,-0.0825,-0.0806,-0.081,-0.0808,-0.0808,-0.0807,-0.0806,-0.0807,-0.0828,0,0,0,0,0,-0.0887,-0.0879,-0.0873,-0.0861,-0.0858,-0.0854,-0.0849,-0.0848,-0.0841,-0.0838,-0.0833,-0.0826,-0.0818,-0.0812,-0.0804,-0.0791,-0.0789,-0.0785,-0.0784,-0.0783,-0.0782,-0.0776,-0.0774,-0.0791,-0.0791,-0.0791,0,0,-0.0881,-0.0876,-0.0871,-0.086,-0.0855,-0.0847,-0.0851,-0.0842,-0.0836,-0.0836,-0.0825,-0.0821,-0.0814,-0.0801,-0.0795,-0.0797,-0.0777,-0.0782,-0.0782,-0.0781,-0.0775,-0.0773,-0.0771,-0.0791,-0.0791,-0.0791,0,0,-0.0867,-0.0863,-0.0853,-0.0849,-0.0841,-0.0839,-0.0837,-0.083,-0.0827,-0.0816,-0.0816,-0.0809,-0.0795,-0.079,-0.0785,-0.0772,-0.0772,-0.0769,-0.0763,-0.0757,-0.0756,-0.0755,-0.075,-0.0749,-0.0768,-0.0768,-0.0768,0,-0.0861,-0.0849,-0.0848,-0.0839,-0.0835,-0.0836,-0.0826,-0.0822,-0.0812,-0.0809,-0.0812,-0.0795,-0.0789,-0.0776,-0.0773,-0.077,-0.0767,-0.077,-0.0756,-0.0755,-0.0754,-0.075,-0.0748,-0.0768,-0.0768,-0.0768,-0.0768,0,-0.0842,-0.0834,-0.0827,-0.0819,-0.0814,-0.0805,-0.0802,-0.0797,-0.0797,-0.0794,-0.0784,-0.0778,-0.0769,-0.0766,-0.0765,-0.0753,-0.0755,-0.0757,-0.0761,-0.0752,-0.0748,-0.0746,-0.0768,-0.0768,-0.0768,-0.0768,0,0,-0.0823,-0.0816,-0.0814,-0.0811,-0.0804,-0.0797,-0.0789,-0.0781,-0.0777,-0.0771,-0.0764,-0.0753,-0.0755,-0.075,-0.0749,-0.0744,-0.0735,-0.0747,-0.0747,-0.0745,-0.0722,-0.072,-0.0718,-0.0735,-0.0735,-0.0735,-0.0723,0,-0.0809,-0.0794,-0.0793,-0.078,-0.0773,-0.0775,-0.0768,-0.0763,-0.0761,-0.0754,-0.0752,-0.0744,-0.0748,-0.0745,-0.074,-0.0737,-0.073,-0.0738,-0.0729,-0.0728,-0.073,-0.0716,-0.0714,-0.0703,-0.0721,-0.0721,-0.0721,0,-0.0789,-0.0784,-0.077,-0.0766,-0.0762,-0.0756,-0.075,-0.0744,-0.0739,-0.0738,-0.0733,-0.0734,-0.0725,-0.0731,-0.072,-0.0725,-0.0722,-0.072,-0.0719,-0.0718,-0.0724,-0.0715,-0.0699,-0.0698,-0.0718,-0.0718,-0.0718,0,-0.0777,-0.0766,-0.0757,-0.0754,-0.0749,-0.0744,-0.0742,-0.0738,-0.0734,-0.0728,-0.0726,-0.0719,-0.0716,-0.0711,-0.071,-0.0713,-0.0699,-0.0704,-0.0698,-0.0698,-0.0694,-0.0694,-0.0678,-0.0692,-0.0692,-0.0692,-0.0692,0,-0.076,-0.0752,-0.0752,-0.0746,-0.0737,-0.0737,-0.0727,-0.0725,-0.0722,-0.0716,-0.0717,-0.0712,-0.0711,-0.0705,-0.0704,-0.0696,-0.0694,-0.0693,-0.0693,-0.0693,-0.0693,-0.069,-0.0691,-0.0692,-0.0692,-0.0692,-0.0692,0,-0.0745,-0.0744,-0.0734,-0.0731,-0.073,-0.0723,-0.072,-0.0715,-0.0714,-0.0707,-0.0705,-0.0703,-0.0696,-0.0695,-0.0687,-0.0687,-0.0677,-0.0677,-0.0678,-0.0678,-0.0673,-0.0673,-0.0654,-0.0652,-0.0667,-0.0667,-0.0667,0,-0.0734,-0.0728,-0.0724,-0.0721,-0.0719,-0.0713,-0.0709,-0.0709,-0.0705,-0.0701,-0.0696,-0.069,-0.0685,-0.0675,-0.0673,-0.0667,-0.0668,-0.0661,-0.0667,-0.0667,-0.0668,-0.0668,-0.0668,-0.066,-0.066,-0.066,-0.066,0,-0.0715,-0.0716,-0.0711,-0.0706,-0.0702,-0.0698,-0.0694,-0.0691,-0.0691,-0.0687,-0.0681,-0.0677,-0.067,-0.0664,-0.0659,-0.0657,-0.0658,-0.0658,-0.0657,-0.0656,-0.0657,-0.0657,-0.0676,-0.0658,-0.0658,-0.0659,-0.0659,-0.0659,-0.0702,-0.0697,-0.0694,-0.0689,-0.0686,-0.0683,-0.0679,-0.0678,-0.0673,-0.0667,-0.0668,-0.0661,-0.0658,-0.0652,-0.0649,-0.0644,-0.0646,-0.0644,-0.0643,-0.0643,-0.0642,-0.0659,-0.0643,-0.0643,-0.0644,-0.0644,-0.0644,0,-0.0683,-0.0682,-0.0677,-0.0673,-0.0669,-0.0672,-0.0668,-0.0665,-0.0659,-0.0657,-0.0652,-0.0646,-0.0641,-0.0639,-0.0634,-0.0631,-0.0632,-0.063,-0.063,-0.0629,-0.0641,-0.0643,-0.0629,-0.0629,-0.0629,-0.0629,-0.0629,-0.0629,-0.0673,-0.0665,-0.0666,-0.0657,-0.0656,-0.065,-0.0648,-0.0645,-0.0643,-0.0637,-0.0633,-0.0632,-0.063,-0.0625,-0.0621,-0.0621,-0.0619,-0.0617,-0.0617,-0.0627,-0.0628,-0.063,-0.0632,-0.0616,-0.0616,-0.0606,-0.0606,-0.0606]}]]